Theta_e
311 311 310 310 310 309 309 308 307 306 304 301 298 298 297 297 296 297 297 298 298 298 298 299 299 298 298 296 295 295 295 295 295 295 295 295 295 295 295 296 299 300 301 303 304 303 304 305 304 303 303 303 302 302 303 302 301 300 301 302 303 303 304 304 304 304 303 302 304 304 300 300 302 301 304 309 313 318 320 322 326 328 327 325 325
310 310 310 309 309 308 307 304 300 299 298 297 297 296 296 296 296 296 296 298 298 298 298 299 300 299 297 295 295 295 294 294 295 295 295 296 297 297 297 297 299 301 302 303 303 303 304 303 303 303 302 302 302 301 301 300 299 298 299 300 301 301 302 303 303 303 303 301 301 303 301 303 306 303 300 303 308 316 319 321 324 327 326 325 325
310 308 309 308 306 304 302 299 297 297 297 297 296 296 295 296 297 297 297 297 297 298 298 298 299 299 297 295 294 294 294 294 295 294 294 297 299 299 299 300 301 302 303 303 302 303 303 303 302 302 301 301 301 300 299 298 298 298 298 299 299 299 300 301 301 302 302 302 302 303 303 304 305 305 304 304 305 310 316 320 323 326 326 326 325
308 306 306 304 301 299 298 297 296 296 296 296 296 295 295 296 297 297 297 297 297 297 298 298 298 298 297 295 294 294 294 294 294 294 294 296 299 300 300 301 303 303 303 302 302 302 302 302 302 301 301 300 300 299 298 298 298 298 298 298 298 298 299 299 300 300 301 302 302 303 304 304 305 306 307 307 305 308 312 317 321 325 326 327 325
305 303 301 299 297 297 296 296 296 296 295 295 295 295 295 296 296 297 297 297 297 296 297 299 299 298 296 295 294 294 294 294 294 294 294 294 298 300 300 301 303 303 302 302 302 302 301 301 301 300 300 299 299 298 297 297 297 297 297 297 298 298 298 298 299 299 300 301 302 302 303 304 305 306 307 308 308 310 311 313 318 323 325 327 326
303 301 299 297 296 296 295 295 295 295 295 295 294 294 294 294 295 296 297 296 295 295 295 297 298 297 295 294 294 294 294 294 294 294 295 294 296 299 300 301 303 302 302 302 302 301 301 300 300 299 299 298 298 297 297 297 296 296 296 297 297 297 297 298 298 299 299 300 300 301 302 303 304 305 306 307 309 310 310 311 315 319 323 325 326
301 300 300 299 297 296 295 295 295 294 295 294 294 294 294 294 294 295 296 295 295 295 295 296 296 295 294 293 294 294 294 294 294 294 295 294 295 300 301 302 303 302 301 302 301 301 300 300 299 299 298 297 297 297 297 296 296 296 296 296 297 297 297 297 298 298 298 299 299 300 301 302 303 304 305 306 307 308 311 312 312 315 320 322 324
301 300 300 298 297 295 295 295 294 294 294 294 294 294 294 294 294 294 294 294 295 296 297 297 297 295 294 293 293 294 293 294 294 294 295 294 295 300 302 302 302 302 301 301 300 300 299 299 299 298 298 297 296 296 296 295 295 295 296 296 296 296 296 297 297 298 298 299 299 300 300 301 302 302 303 304 306 307 308 309 310 311 314 317 320
301 301 299 296 295 295 295 295 294 294 294 294 294 294 294 294 294 294 294 294 295 296 298 299 299 297 295 294 293 293 293 293 294 293 294 294 295 300 302 301 301 301 301 300 300 299 299 298 298 298 297 297 296 296 296 295 295 295 296 296 296 296 296 296 297 298 298 298 299 299 300 300 300 301 302 303 304 305 305 307 308 309 311 314 316
302 300 298 296 296 296 296 296 295 295 295 294 294 294 294 294 294 294 293 293 294 295 297 299 299 297 296 294 293 293 293 293 293 293 294 294 295 299 301 301 301 301 300 300 299 299 298 298 298 297 297 297 296 296 295 295 295 296 296 296 296 296 296 297 297 297 297 298 298 298 299 299 300 300 301 302 303 303 304 306 307 308 308 310 313
302 300 299 299 299 299 298 298 297 296 295 295 294 294 294 294 294 293 294 293 293 294 296 297 297 297 296 293 292 293 293 293 294 293 294 295 295 299 300 300 300 300 299 299 299 298 298 297 297 297 297 297 297 296 295 295 295 296 296 296 296 296 296 296 297 297 297 297 297 298 298 299 299 300 300 301 301 302 303 304 305 305 306 307 310
302 301 301 301 300 300 300 300 299 298 297 296 295 295 294 294 294 294 294 294 293 294 295 296 298 300 297 293 292 293 293 293 294 293 294 294 296 298 300 300 300 300 299 299 298 298 298 297 297 297 296 296 296 295 294 295 295 295 296 296 296 296 296 296 296 296 297 297 297 298 298 298 298 299 299 300 300 301 301 302 302 303 304 306 307
302 301 301 301 301 300 300 300 299 299 298 297 296 296 295 295 294 294 294 293 293 293 294 295 298 301 300 295 292 293 293 293 293 293 294 294 296 299 300 300 299 299 299 298 298 298 297 297 296 296 296 296 295 294 294 294 295 295 296 296 296 296 296 296 296 296 297 297 297 297 297 297 297 297 298 299 299 299 300 300 301 301 303 305 306
301 301 301 301 301 300 300 300 299 299 298 297 297 297 296 295 295 296 295 294 294 294 294 294 296 300 301 298 293 292 293 293 293 293 294 294 296 298 299 299 299 299 299 298 298 297 297 296 296 296 295 295 294 293 294 294 295 295 295 296 296 296 296 296 296 296 296 296 296 296 296 296 296 296 297 298 298 298 298 299 300 301 302 303 304
301 301 301 300 300 300 300 299 299 299 298 298 297 296 296 297 297 297 296 296 296 295 294 294 294 297 300 300 295 292 292 293 292 293 293 295 296 298 299 299 299 299 298 298 298 297 297 296 296 295 295 294 293 293 294 294 295 295 295 295 296 296 296 296 296 296 297 296 296 296 296 296 296 296 297 298 298 298 299 299 300 301 301 303 305
301 301 301 300 300 300 299 299 299 299 298 298 297 296 296 298 297 297 297 296 296 296 295 295 294 294 296 299 297 293 291 292 292 292 293 294 296 298 298 298 299 299 298 298 297 297 297 296 296 295 294 293 293 293 293 294 294 295 295 295 295 296 297 297 297 297 297 297 297 296 296 296 296 296 297 297 298 298 299 300 300 301 301 303 305
301 301 301 301 300 300 299 299 299 299 299 299 297 296 298 298 298 298 298 298 297 297 296 295 294 292 292 295 297 295 292 291 292 292 292 293 294 297 298 298 298 298 298 297 297 297 296 296 295 295 294 293 293 293 293 293 294 295 295 295 295 295 296 297 297 297 297 297 297 296 296 296 296 296 297 297 297 298 298 299 300 301 302 303 305
301 301 301 300 300 300 300 299 299 299 299 298 297 297 298 298 298 299 299 298 299 299 298 297 296 294 291 291 294 295 293 291 291 292 292 292 293 295 297 296 297 298 298 297 297 297 296 296 296 295 294 293 293 294 293 293 293 294 295 295 294 295 295 295 296 297 297 297 297 296 296 296 295 296 297 297 297 297 298 299 300 301 302 303 304
301 301 301 300 300 300 300 300 300 299 299 298 297 298 298 298 299 299 299 299 299 298 298 299 297 296 295 292 292 293 292 291 291 291 292 292 292 294 295 295 296 297 298 297 297 297 296 296 296 295 294 293 293 294 294 293 293 294 294 294 294 295 295 295 295 296 296 297 296 296 296 296 295 296 296 297 297 297 297 298 299 300 302 303 304
301 301 301 301 301 300 300 300 299 299 298 298 298 298 298 299 299 299 299 299 299 298 298 298 298 297 297 296 293 292 292 292 291 291 291 292 292 293 294 293 294 296 298 297 296 296 296 296 296 295 294 293 293 294 294 294 294 294 294 294 294 294 295 295 295 295 296 296 296 296 296 296 295 295 296 296 297 297 297 298 298 299 301 302 303
301 301 301 301 300 300 300 299 299 298 297 297 298 298 299 299 300 299 299 298 299 299 300 299 299 299 298 298 297 295 293 293 292 291 291 291 291 292 292 292 292 294 296 297 296 296 296 296 295 295 294 294 293 293 294 294 294 294 294 294 293 294 294 295 295 295 296 296 296 296 295 296 296 295 295 296 297 297 298 298 298 299 300 301 303
301 301 300 300 300 300 299 298 297 297 296 297 297 298 298 299 300 300 299 299 299 300 300 300 300 300 299 299 299 297 296 294 292 291 291 291 291 291 291 292 291 293 295 297 296 296 296 296 295 295 294 294 294 293 294 294 294 294 294 294 294 294 294 295 295 295 295 295 295 295 295 295 296 295 295 295 296 297 297 298 299 300 301 302 303
300 300 300 300 300 299 297 296 296 297 297 298 298 298 299 299 300 300 300 300 300 300 300 300 299 299 299 299 299 298 297 295 292 291 291 291 291 291 291 291 291 292 294 296 296 295 296 295 295 294 294 294 294 293 294 294 294 294 294 294 294 294 294 294 295 295 295 295 295 295 295 295 295 295 295 295 296 296 297 298 299 301 302 303 304
301 301 301 301 300 297 295 296 297 297 299 300 300 300 300 300 300 300 301 300 300 300 300 299 299 299 299 299 299 298 298 297 294 291 291 291 291 290 290 291 291 291 294 295 295 295 295 295 295 294 294 294 294 294 294 294 294 294 294 294 294 294 294 294 294 294 294 294 294 294 295 295 295 295 295 295 295 295 297 298 299 300 301 303 305
301 301 301 300 299 298 297 298 298 299 300 300 300 300 301 301 301 300 300 300 300 299 299 299 299 299 299 299 299 298 297 296 294 292 291 291 291 291 291 291 290 291 294 295 295 295 295 295 295 295 294 294 294 294 294 294 294 294 294 294 294 294 294 294 294 294 294 294 294 294 295 295 296 295 295 295 295 295 296 298 299 300 302 303 305
302 301 301 300 299 299 300 300 300 300 301 301 301 301 301 301 301 301 300 300 300 299 299 299 299 299 299 299 299 299 298 296 293 291 291 291 291 290 291 290 290 292 294 294 294 294 295 295 295 295 294 294 294 294 294 294 294 294 294 294 294 294 294 294 294 294 294 294 293 293 294 295 296 296 295 295 295 295 295 296 298 299 301 302 304
301 301 301 300 300 300 301 301 300 300 301 301 300 300 300 300 300 301 301 301 300 300 299 299 299 299 299 298 298 298 298 296 293 291 290 291 291 290 291 290 290 292 294 294 294 294 295 295 295 295 294 294 294 294 294 294 294 294 294 294 294 294 294 294 294 294 294 293 293 293 294 295 296 296 295 295 295 295 295 295 296 298 299 301 303
301 301 301 301 301 301 301 300 300 300 301 301 300 300 300 301 300 300 300 300 301 301 300 299 298 299 299 298 297 297 297 295 292 291 290 291 291 290 290 291 291 293 294 294 294 294 295 295 295 295 295 295 294 294 294 294 294 294 294 294 294 294 294 293 294 293 293 293 293 293 294 295 296 296 295 295 295 295 294 295 295 296 298 300 302
301 301 301 301 301 301 301 300 300 301 301 301 301 301 300 301 301 300 298 297 296 298 299 299 297 297 299 298 295 295 296 294 291 291 291 290 291 290 291 291 292 293 293 294 294 294 295 295 295 295 295 295 294 294 294 294 294 294 294 294 294 293 293 293 293 293 293 293 293 293 294 295 296 296 296 296 296 295 294 294 294 295 297 299 301
302 302 302 301 301 302 301 299 301 302 301 301 301 300 298 299 300 299 297 294 293 293 295 295 293 294 297 297 294 292 293 292 291 291 291 290 290 291 291 292 293 293 293 294 294 294 295 295 295 295 294 294 294 294 294 294 294 294 294 294 294 293 293 293 293 292 293 293 293 293 294 294 295 296 296 296 296 295 295 294 294 294 295 298 300
302 302 302 302 302 302 301 300 301 302 301 301 301 299 296 295 296 296 294 293 293 293 293 293 292 292 294 294 293 291 292 292 291 291 291 291 291 291 291 293 294 294 294 294 294 295 295 295 295 295 295 295 294 294 294 294 294 293 294 294 293 293 293 292 292 292 293 293 293 293 294 294 295 296 296 296 296 296 295 295 294 294 294 295 297
303 303 303 303 302 301 302 302 301 302 302 301 301 300 298 297 297 297 296 295 295 295 294 294 294 293 292 292 292 291 292 292 291 291 291 291 291 291 292 294 294 294 294 294 295 295 295 295 295 295 295 295 294 294 294 294 294 294 294 294 294 293 293 292 292 292 293 293 293 293 294 294 295 296 296 296 296 296 295 295 294 294 294 294 295
303 303 303 303 301 301 302 302 301 301 302 301 301 301 301 301 300 300 299 298 298 298 298 297 296 295 294 293 292 291 291 292 291 291 291 291 291 292 294 295 295 295 295 295 295 295 295 295 295 295 295 295 295 294 294 294 294 294 294 294 294 293 293 292 292 292 293 293 293 293 294 294 294 295 296 296 296 296 295 295 294 294 294 293 294
303 303 303 303 302 301 302 302 301 301 301 301 301 301 301 302 302 301 300 300 300 300 299 299 298 297 296 295 294 293 292 292 291 292 291 291 292 294 295 296 296 296 295 296 295 295 295 295 295 295 295 295 295 295 294 294 294 294 294 294 294 293 293 292 291 292 292 293 293 293 294 294 294 295 296 296 296 296 296 295 294 294 293 293 293
302 302 302 302 301 301 302 302 301 301 301 300 300 301 301 301 301 300 300 301 300 300 300 299 299 299 298 297 296 296 295 293 292 292 293 292 293 295 296 296 296 296 296 296 296 295 295 296 295 295 295 295 295 295 294 294 293 293 293 293 293 293 293 292 291 291 292 293 293 293 294 294 294 295 296 296 296 296 296 295 294 294 293 293 293
302 302 302 302 301 300 301 302 301 301 301 301 300 301 301 300 300 300 300 300 299 300 300 300 300 299 299 298 298 298 297 294 293 294 295 294 294 295 296 297 297 296 296 296 296 295 295 295 295 295 295 294 294 294 294 294 293 293 293 293 293 293 292 292 291 291 292 293 293 293 294 294 294 294 295 296 296 296 296 295 294 294 293 293 293
302 302 301 301 300 300 301 302 301 301 301 301 301 300 300 300 300 300 300 300 300 300 300 300 300 300 299 298 298 299 297 296 296 296 296 296 295 295 296 297 297 296 296 296 296 295 295 295 295 295 295 294 294 294 294 294 293 293 293 293 293 292 292 291 290 290 291 292 292 293 293 294 294 294 295 296 296 296 296 296 295 295 294 294 293
302 302 301 300 300 301 302 301 301 301 300 300 300 300 300 300 300 300 300 300 300 299 299 299 299 299 299 299 299 298 298 298 298 297 297 297 296 296 297 297 297 297 296 296 296 296 295 295 295 294 294 294 294 294 293 293 293 293 292 292 292 292 291 291 290 290 291 292 292 292 293 294 294 294 294 295 296 296 296 296 296 296 295 295 294
302 302 302 300 300 301 302 302 302 301 300 299 300 300 300 300 300 300 300 300 300 299 299 299 299 299 299 300 299 299 298 298 298 297 297 297 297 297 297 297 297 297 297 296 296 296 295 295 295 294 294 294 294 293 293 293 293 292 292 291 291 291 291 291 290 289 290 292 292 292 292 293 294 294 294 294 295 296 296 296 296 296 296 295 295
302 302 302 301 300 300 301 302 302 301 300 300 300 300 300 300 300 300 300 300 300 300 300 299 299 299 299 299 299 298 297 296 296 297 298 298 297 297 297 297 297 297 297 297 297 296 296 295 295 294 293 293 293 293 293 293 292 292 292 291 291 290 291 291 290 289 290 291 292 292 292 293 293 294 294 294 294 295 296 296 296 296 296 296 296
302 302 302 301 300 300 301 301 301 301 301 300 300 300 300 300 300 300 299 300 300 300 300 299 299 299 299 299 298 297 295 295 296 297 298 298 297 297 297 297 297 297 297 297 297 297 296 295 295 294 293 293 293 293 293 293 292 292 292 291 290 290 290 290 290 289 290 291 292 291 291 292 293 293 294 294 294 295 295 296 296 296 296 296 296
302 302 302 300 299 299 300 301 301 301 301 301 300 300 300 300 300 300 300 299 300 300 300 299 299 299 299 298 298 297 296 295 296 297 297 298 298 298 297 297 297 297 297 296 296 296 296 295 294 294 293 293 293 293 293 293 292 292 292 291 290 289 289 290 290 290 289 290 291 291 291 291 292 293 293 293 294 294 294 295 296 296 296 296 296
302 302 302 301 299 299 299 300 300 300 300 300 300 300 300 300 300 300 300 299 299 299 299 299 299 299 299 298 298 298 297 296 296 297 298 298 298 297 297 297 297 297 297 296 296 296 295 294 294 294 293 293 293 292 293 293 293 292 292 291 290 289 289 289 290 290 289 290 291 291 291 291 291 292 293 293 293 294 294 294 295 295 296 296 296
302 302 302 302 300 299 298 299 300 300 300 300 299 299 299 299 299 300 300 299 300 299 299 299 299 298 299 299 298 298 297 297 297 298 298 298 297 297 297 297 297 297 297 296 296 296 295 294 294 293 292 292 292 292 293 293 293 292 292 291 289 288 288 289 289 290 289 289 290 291 291 291 291 291 292 293 293 293 294 294 294 295 295 295 296
303 302 302 302 301 300 299 299 299 300 300 300 299 299 299 299 299 299 299 299 299 299 299 299 299 299 298 299 299 298 298 298 299 299 298 298 297 297 297 298 297 297 297 296 296 296 295 294 293 293 292 292 291 291 292 293 293 292 292 291 290 289 288 288 288 289 289 289 290 291 291 291 291 290 291 292 293 293 293 294 294 294 295 295 295
302 303 302 302 301 301 300 300 300 300 300 300 299 299 299 298 298 298 299 299 299 299 299 299 299 299 298 298 298 298 298 298 298 298 298 298 298 297 297 297 297 297 297 296 296 296 295 294 294 293 292 292 291 291 292 293 293 293 292 291 290 290 289 289 288 289 289 289 290 290 290 290 290 290 290 291 292 293 293 293 293 294 294 295 295
302 302 302 302 302 301 301 301 301 300 300 300 300 299 299 299 299 299 299 298 298 298 299 299 299 299 299 299 298 298 298 298 298 298 298 298 298 298 297 297 297 297 296 296 296 296 295 295 294 294 293 292 291 291 291 292 293 293 293 291 290 290 290 290 289 289 288 288 290 290 289 289 289 289 288 289 291 292 293 293 293 293 294 294 295
302 302 302 302 302 301 301 301 301 301 301 301 300 300 299 299 299 299 299 299 299 298 298 299 299 299 299 299 299 299 299 298 298 298 298 298 298 298 298 297 297 297 297 296 296 296 295 295 294 294 293 293 292 291 292 292 293 293 293 292 290 289 289 290 290 289 289 288 289 289 289 289 289 289 288 288 289 291 292 293 293 293 293 293 294
302 303 302 302 302 301 301 301 301 301 300 300 300 300 299 299 299 299 299 299 299 299 299 299 299 299 299 299 299 299 299 299 299 299 298 298 298 298 298 298 297 297 297 296 296 296 296 295 295 294 294 294 293 292 292 292 292 292 292 291 290 289 289 289 289 290 289 289 288 288 288 289 289 289 289 288 289 289 291 292 293 293 293 293 293
301 302 302 302 302 301 301 301 300 301 301 301 300 300 300 299 299 299 299 299 299 299 299 299 299 299 299 299 299 299 299 299 299 299 299 299 298 298 298 298 298 297 297 297 296 296 296 296 295 295 295 294 294 293 292 292 292 292 292 291 289 289 289 289 289 289 289 289 289 289 288 288 289 289 289 289 289 289 290 291 292 292 293 293 293
300 301 302 302 301 301 300 300 300 300 301 301 301 301 300 300 299 299 299 299 299 299 299 299 299 299 299 299 299 299 299 299 299 299 299 298 298 298 298 298 298 297 297 297 297 296 296 296 296 295 295 295 294 294 293 292 292 293 292 291 290 289 289 289 288 288 288 289 289 289 288 288 288 288 289 289 289 289 289 290 291 292 292 293 293
Wind_Speed
9 9 10 11 11 11 11 12 12 12 14 15 16 17 16 16 15 15 15 14 13 14 14 14 15 15 16 16 18 19 19 20 20 21 21 21 21 21 21 19 17 16 15 14 15 15 15 14 15 16 17 17 17 18 17 18 20 21 20 19 19 20 21 23 27 31 34 35 33 35 39 40 39 37 35 31 30 30 29 26 27 30 30 29 32
11 11 12 11 11 12 13 15 16 16 18 18 17 17 17 17 16 15 15 14 13 13 13 14 14 14 15 17 18 18 19 20 20 21 21 20 20 20 21 20 18 16 16 15 14 14 14 14 15 16 17 17 17 17 18 20 22 23 22 21 21 21 22 23 27 30 34 37 37 37 38 36 35 38 38 34 30 28 29 27 27 30 32 30 29
12 13 13 12 13 14 15 17 18 17 18 17 17 18 17 16 16 15 14 14 14 14 13 13 14 13 15 16 17 18 18 19 20 20 20 19 18 18 19 18 17 15 14 14 15 15 15 15 15 17 17 17 17 18 19 21 22 22 23 24 23 24 24 23 25 29 32 36 37 36 36 35 35 36 36 35 32 29 29 28 26 30 32 30 28
14 15 14 14 16 16 17 18 18 18 18 17 17 18 17 16 15 14 14 13 13 14 13 14 14 13 14 16 17 17 18 19 19 19 19 19 16 16 17 15 14 14 14 14 15 15 15 16 16 17 17 17 18 19 19 21 22 21 22 24 24 24 25 25 25 28 31 34 35 34 33 35 36 34 33 35 35 31 30 29 26 27 30 30 27
15 16 16 17 18 18 18 18 18 18 18 17 17 17 17 16 15 14 13 13 13 13 13 14 13 13 14 16 17 17 18 18 19 19 19 19 17 15 16 15 13 13 14 14 14 15 15 16 16 17 17 18 19 19 19 21 22 23 24 24 23 23 25 27 27 28 30 32 35 34 32 32 33 33 31 32 33 32 32 30 27 26 28 29 28
16 17 17 18 19 19 19 18 18 17 17 16 16 16 16 15 14 14 13 13 13 13 14 14 12 12 14 16 17 17 18 18 18 19 19 18 17 16 16 16 13 13 14 13 14 15 15 16 16 17 17 19 21 21 21 22 24 27 29 27 25 25 27 28 27 27 29 31 33 33 32 31 32 33 32 30 31 32 33 32 29 26 24 26 30
18 19 19 19 19 19 19 18 17 16 16 16 15 15 15 14 14 14 13 13 14 13 14 14 13 14 15 17 18 18 18 19 19 20 19 18 18 16 15 14 13 14 14 13 14 15 15 16 16 16 17 19 20 20 20 23 28 31 31 30 30 30 29 28 27 27 28 29 31 32 32 31 31 32 33 30 30 29 28 30 32 30 25 24 27
20 20 19 19 19 19 18 17 16 16 15 16 15 15 15 14 13 13 13 14 14 14 14 14 14 15 16 18 19 19 19 20 20 20 19 18 17 15 14 13 13 13 14 13 14 15 16 16 15 16 17 19 22 21 22 28 33 34 33 32 32 31 29 28 28 28 28 29 31 32 32 32 31 31 32 31 30 29 27 29 34 34 31 28 27
20 19 19 20 20 19 18 17 17 16 16 15 15 15 15 14 14 14 14 14 15 14 13 12 12 14 17 18 19 19 20 21 21 21 19 18 16 13 13 13 13 13 13 14 14 15 16 16 16 17 19 22 25 25 27 34 37 36 35 33 30 28 27 28 29 29 29 30 31 32 32 32 31 31 32 31 31 32 32 31 32 33 32 32 31
19 19 19 19 19 18 17 17 17 17 16 16 15 15 15 15 15 15 15 15 15 14 14 13 13 14 17 19 20 20 21 21 21 19 18 17 16 14 12 12 12 12 14 14 14 16 16 17 17 18 21 23 23 25 31 36 37 36 35 31 28 27 28 29 29 30 30 31 31 32 33 33 32 31 33 34 33 33 32 31 32 32 31 34 34
19 19 19 18 17 16 16 16 16 16 16 16 16 16 16 16 15 15 15 16 16 15 15 15 15 15 17 20 21 21 21 21 20 19 17 16 16 15 12 12 12 12 14 14 15 16 16 17 19 20 22 24 23 27 35 38 37 36 35 31 28 28 29 29 30 29 30 31 31 31 33 35 35 33 33 35 35 33 32 30 31 33 32 33 35
19 19 18 17 16 16 16 15 15 16 16 16 17 16 16 16 16 16 16 17 17 16 16 15 14 13 15 19 21 21 21 21 20 19 17 16 17 15 12 12 11 12 14 14 15 16 16 17 20 21 23 24 25 32 38 38 38 37 33 30 28 29 29 29 29 28 29 31 32 32 34 36 37 35 33 35 36 36 36 35 34 34 33 31 34
19 19 18 17 16 16 16 15 16 16 16 16 16 16 16 17 17 17 17 18 17 18 17 16 14 11 11 16 21 21 21 22 22 19 18 17 17 15 11 11 12 12 13 14 15 16 17 18 20 23 24 24 28 35 38 39 39 35 29 28 29 31 31 29 27 26 28 31 32 33 35 36 37 38 37 37 38 39 40 39 35 33 33 32 34
20 19 18 17 17 16 16 16 16 16 16 16 16 16 17 17 17 16 16 17 17 17 18 17 16 13 9 12 19 22 21 23 23 20 18 18 18 16 12 11 12 13 13 14 15 16 17 18 20 23 24 24 29 34 36 38 38 31 27 29 31 34 32 28 28 28 29 30 30 33 35 34 36 39 39 38 38 38 38 39 38 36 36 37 39
20 19 18 17 17 17 16 17 17 16 16 16 16 17 17 16 15 15 14 15 15 15 17 17 16 14 9 8 15 21 22 22 23 23 20 18 19 17 13 11 12 13 13 14 15 15 17 18 20 23 24 24 29 34 37 40 36 28 28 31 32 35 33 29 31 32 31 31 30 31 34 33 34 37 37 37 37 36 36 37 38 38 38 40 42
20 19 19 18 17 17 17 17 17 16 16 16 16 17 17 15 14 14 14 14 15 15 15 16 16 15 13 9 11 19 22 22 23 24 23 20 19 16 14 12 12 13 14 15 15 16 18 20 20 24 26 26 28 31 37 41 35 27 28 32 34 38 37 34 34 34 33 33 32 32 33 34 33 34 34 34 33 32 32 34 35 35 35 38 41
21 20 19 18 17 17 17 17 16 16 15 15 16 16 16 14 13 12 12 12 12 13 13 14 15 17 17 14 11 14 21 23 22 23 24 23 20 17 14 14 13 13 15 15 15 17 21 23 23 26 29 29 27 29 35 40 36 28 28 33 38 41 41 39 37 36 36 35 34 35 36 36 34 32 31 30 28 27 28 31 32 31 30 33 37
21 20 19 18 18 17 16 16 16 15 15 15 16 15 15 14 13 12 11 11 10 10 10 10 12 15 18 18 15 13 19 23 23 23 23 23 22 19 16 15 14 13 15 16 15 17 20 23 25 27 29 29 27 28 31 36 37 31 28 35 42 44 43 42 41 40 40 38 37 38 39 39 37 33 29 26 24 23 23 26 28 28 28 30 33
21 20 19 19 18 17 16 16 15 15 15 15 15 14 13 12 11 10 9 9 9 8 8 8 9 11 14 18 19 17 19 22 23 23 23 23 23 20 17 17 16 13 14 16 16 16 18 21 23 26 28 28 28 28 29 33 37 33 31 39 46 45 43 42 42 43 42 40 40 41 42 43 42 37 31 27 22 19 19 22 24 25 26 29 30
21 20 20 19 17 17 16 16 15 15 15 16 14 13 13 12 11 9 8 8 8 7 7 7 8 9 10 12 16 19 20 22 23 23 23 23 23 22 19 19 18 13 13 16 17 17 18 20 21 25 28 30 30 28 26 30 34 33 34 40 45 45 44 42 40 40 39 39 42 45 46 46 46 43 37 30 24 19 18 20 22 22 23 27 29
21 21 19 18 18 17 17 16 16 15 15 15 14 12 12 11 10 9 8 8 8 7 6 5 6 7 7 8 12 16 19 21 22 22 22 21 22 22 21 20 19 15 12 15 17 17 18 20 22 26 29 31 32 30 26 28 32 33 33 38 41 43 44 41 37 34 35 39 45 48 50 50 49 47 42 34 27 23 19 19 19 18 18 22 26
22 21 19 19 18 17 17 18 17 16 15 14 13 12 11 10 9 8 8 7 7 7 5 5 5 5 5 6 8 12 16 19 20 21 21 20 21 22 21 20 20 17 13 14 18 18 18 19 23 28 31 30 32 33 29 28 31 32 32 36 39 40 41 40 35 30 32 42 50 51 52 53 52 51 47 38 31 27 24 20 16 13 13 17 22
22 21 19 19 18 18 19 19 18 17 15 13 12 10 10 9 7 7 6 5 5 5 4 5 5 4 5 5 6 8 11 16 19 20 19 20 20 21 22 22 22 18 13 13 18 18 17 20 24 29 31 30 31 33 31 29 31 31 31 34 36 36 38 40 37 33 37 47 52 53 54 55 53 53 50 42 35 32 28 21 15 13 11 13 16
22 21 19 19 18 19 19 18 17 16 13 11 10 9 8 7 6 5 5 4 4 4 4 4 4 4 5 5 5 7 8 11 16 19 19 20 20 21 23 23 22 19 15 14 17 17 17 20 25 29 30 30 30 30 29 30 31 32 31 32 34 34 36 40 39 37 43 51 52 53 56 56 53 52 51 44 37 35 31 22 16 17 15 9 9
21 20 19 19 19 18 17 15 14 13 12 10 9 8 7 6 5 4 5 4 3 3 3 4 4 4 5 5 5 6 7 9 14 17 19 20 20 21 22 22 21 19 16 15 16 16 18 21 25 27 28 29 29 29 29 29 31 32 31 31 32 33 36 40 39 37 43 50 52 53 56 56 54 53 51 46 40 37 35 28 21 18 15 9 3
21 20 19 18 18 16 15 13 13 12 11 9 8 7 6 5 5 4 3 3 3 3 3 3 3 4 4 5 5 5 6 9 14 17 19 19 20 21 22 22 22 19 16 15 16 19 21 23 24 25 26 27 28 29 29 29 30 32 31 31 32 33 35 38 39 38 42 48 51 53 55 55 54 54 52 49 43 39 38 35 29 23 19 15 10
21 20 19 18 17 15 14 13 12 12 10 9 8 7 6 5 4 4 3 2 2 2 2 2 3 3 4 5 6 5 6 9 14 17 18 19 20 21 22 23 23 20 17 17 18 21 23 23 23 24 25 26 27 27 28 29 29 31 31 30 31 33 35 36 37 39 42 46 48 51 55 56 55 55 54 52 47 41 39 39 36 30 26 23 19
21 19 18 17 16 15 14 14 13 11 10 9 8 6 6 4 4 3 3 3 3 2 2 2 2 3 4 5 5 5 6 9 13 16 18 19 21 21 22 23 23 20 18 19 20 20 21 21 22 23 24 25 26 26 27 28 29 30 30 30 31 32 34 35 36 38 41 44 47 51 54 56 55 54 54 54 51 45 40 39 38 35 31 28 26
20 19 18 17 16 14 14 14 12 10 10 10 8 7 8 7 5 4 5 5 6 6 4 2 1 1 2 4 4 5 5 8 12 15 17 18 20 20 21 23 22 20 19 20 19 19 19 19 20 22 24 25 25 26 27 28 29 30 30 30 31 32 33 34 36 38 40 43 47 50 53 55 55 54 54 55 53 48 42 40 40 38 34 31 30
20 18 17 16 15 15 13 13 12 10 10 10 9 9 11 11 9 6 4 4 4 5 5 3 1 2 2 1 3 4 5 8 11 13 15 16 17 18 19 20 20 20 20 20 19 18 18 20 20 21 23 24 24 26 27 27 28 30 30 30 31 32 32 33 36 37 38 41 45 47 49 53 55 54 53 54 54 50 45 42 42 41 38 35 32
20 18 17 16 16 16 13 13 12 11 10 10 9 8 8 9 7 4 2 1 1 1 1 1 1 2 2 1 3 5 7 8 10 12 13 15 15 15 17 19 20 20 20 20 21 19 18 20 20 20 22 23 23 25 26 26 27 29 29 29 31 33 33 34 36 36 36 39 42 44 45 49 53 53 51 52 53 51 47 44 43 43 42 39 35
19 18 17 16 17 16 13 12 12 11 10 11 10 9 9 8 5 3 2 1 2 4 4 4 4 5 5 4 5 7 8 9 10 11 12 14 14 14 16 18 20 20 20 20 20 18 18 19 20 20 21 23 23 24 25 25 26 27 28 28 30 32 32 33 35 35 35 37 40 42 43 46 50 51 49 49 52 52 48 45 44 43 42 42 39
18 17 17 16 17 16 13 12 12 11 10 11 10 10 10 10 9 7 6 6 6 6 6 6 7 8 9 8 7 7 8 9 9 10 12 13 14 14 16 17 18 19 20 19 17 17 17 18 19 20 21 22 22 23 24 24 25 25 27 28 28 29 30 32 33 34 35 35 38 41 41 42 46 50 49 48 51 52 49 45 44 43 42 43 42
17 17 17 16 16 16 14 12 12 11 11 11 11 10 9 9 8 8 8 8 8 7 7 8 8 9 11 11 10 9 10 10 10 10 11 13 13 13 14 16 17 18 18 17 15 16 17 18 19 19 20 21 22 22 23 24 24 25 26 27 27 28 30 31 32 34 34 34 35 39 40 40 43 47 47 47 49 51 49 45 43 43 41 41 41
17 16 17 17 16 16 14 12 12 12 11 10 10 10 9 8 7 7 7 7 6 7 8 10 10 10 11 13 12 12 13 13 11 10 12 14 14 13 13 14 15 15 15 14 14 15 16 17 18 19 19 20 21 21 22 23 23 24 25 26 27 28 30 31 32 33 33 32 33 37 39 39 40 43 44 44 46 49 49 44 40 40 39 39 39
17 16 18 18 16 15 14 13 12 12 12 11 10 10 9 8 8 7 7 6 5 5 6 9 11 11 12 13 13 13 14 14 11 12 13 15 16 15 13 12 13 14 13 13 14 15 15 16 17 18 18 19 21 21 21 22 22 23 24 25 26 27 30 30 31 32 32 31 32 34 36 37 38 40 42 43 42 45 47 44 40 39 39 39 39
17 16 18 18 16 14 14 13 12 12 12 11 10 10 9 9 8 8 7 7 6 5 5 6 7 10 13 13 11 12 14 13 12 12 14 14 15 15 13 11 11 13 13 13 13 14 15 15 16 17 17 19 20 20 20 21 22 22 23 24 25 27 29 29 30 31 31 30 31 32 34 36 37 37 39 41 41 41 44 44 42 41 40 40 40
17 16 17 19 18 15 13 13 13 13 13 11 10 10 10 9 9 8 8 7 7 6 6 6 6 8 11 11 11 12 14 13 12 12 13 13 13 13 12 10 10 11 12 12 12 13 14 14 15 16 16 17 19 19 19 20 21 22 23 24 25 26 28 29 29 30 30 30 30 31 31 32 34 35 36 38 38 38 39 41 41 41 40 39 39
17 16 17 18 18 16 14 13 13 13 13 12 11 10 10 10 9 9 8 8 8 7 7 7 7 7 7 7 8 9 10 10 10 10 10 9 9 10 9 9 10 10 11 11 11 12 13 13 14 15 15 16 17 18 18 19 20 21 22 23 25 26 27 28 29 30 30 29 30 31 30 30 31 32 33 34 36 35 35 36 38 39 39 38 37
17 16 17 19 19 16 14 13 13 13 13 13 12 11 11 11 10 10 9 9 9 9 8 8 8 8 7 7 8 8 9 9 10 9 9 8 9 9 8 9 9 9 10 10 10 11 12 12 13 13 14 15 16 17 17 18 19 20 21 23 25 26 26 27 28 29 29 28 29 30 30 29 29 30 31 32 33 33 33 33 33 35 36 36 35
16 16 18 20 19 17 15 14 13 13 13 13 13 12 12 12 12 11 11 10 10 10 10 10 9 9 10 12 14 13 12 11 10 9 9 9 9 9 8 9 9 9 9 10 10 10 11 11 12 12 13 14 15 15 16 17 19 20 21 22 24 25 25 25 27 28 28 27 27 28 30 29 27 27 28 29 29 30 31 31 30 30 31 33 33
17 16 16 18 19 18 17 15 14 14 13 13 13 13 12 12 12 12 12 12 11 11 11 10 10 11 14 17 17 16 14 11 10 10 10 9 8 9 9 9 9 8 9 9 9 9 10 11 11 11 12 13 14 14 15 16 18 20 20 21 23 24 24 24 25 26 26 25 25 26 27 27 26 25 26 26 26 27 29 29 29 29 28 28 29
17 16 15 16 18 19 18 16 16 15 14 14 14 13 13 13 13 13 13 14 13 13 13 12 11 12 15 17 18 16 15 13 11 10 10 9 8 9 9 9 8 8 8 9 9 9 10 11 11 11 12 12 13 13 13 14 15 17 18 19 22 23 23 22 23 24 24 24 24 24 25 25 24 23 23 24 24 23 25 27 27 28 27 26 26
17 16 15 14 15 18 18 17 16 16 15 15 14 14 14 14 14 14 14 14 14 14 14 13 12 12 14 16 17 16 14 12 11 11 10 10 10 10 10 9 9 9 9 9 9 9 10 11 12 12 12 12 12 12 11 11 13 14 15 18 20 22 22 21 21 21 22 22 23 22 22 23 23 21 21 22 22 21 22 23 24 25 26 25 24
17 16 16 15 14 16 17 18 17 16 15 15 15 15 15 15 15 15 15 15 15 14 14 14 14 13 14 15 15 14 12 11 11 11 11 11 11 11 10 9 10 9 9 10 9 9 11 12 13 12 12 13 12 11 10 9 11 11 12 15 18 21 21 21 20 19 19 19 20 21 21 21 21 20 19 19 20 20 19 20 21 21 23 23 23
18 16 16 16 16 15 16 17 17 17 16 16 16 16 16 16 16 16 16 16 15 15 15 15 15 15 15 15 15 15 14 13 13 13 12 12 12 11 10 10 10 10 10 11 11 11 12 14 14 14 14 14 13 12 9 8 9 10 9 12 16 18 19 19 19 18 18 17 18 19 19 19 18 17 17 17 17 17 17 17 18 18 19 19 20
17 17 16 16 16 16 16 16 17 17 17 16 16 16 16 16 16 16 17 17 17 17 16 16 16 16 16 16 16 16 15 15 14 14 13 13 12 12 12 12 12 12 12 11 11 11 12 13 14 15 15 15 14 12 8 6 8 8 8 10 14 16 16 17 18 18 17 17 16 17 17 17 16 15 16 16 16 16 16 16 16 16 16 16 16
17 17 17 16 16 17 17 17 17 18 17 17 17 17 17 17 16 16 17 17 17 18 18 17 17 17 16 16 16 16 16 15 15 15 14 14 13 13 13 13 13 13 13 13 13 13 14 15 15 16 17 16 15 14 10 8 8 7 7 11 15 16 15 15 16 16 16 16 15 15 15 15 15 14 14 14 14 14 15 15 14 13 13 13 13
17 17 17 17 17 17 17 17 18 19 19 19 18 18 18 18 18 18 18 17 17 17 18 18 18 18 17 17 17 17 17 16 16 16 15 14 14 14 14 14 14 15 16 17 16 15 15 16 17 18 18 18 16 15 12 10 9 8 9 12 15 15 14 14 14 14 13 14 14 14 14 14 14 13 13 14 13 12 12 14 14 13 11 11 12
20 18 17 17 17 18 18 18 18 19 19 19 19 19 19 19 19 19 19 19 19 18 18 18 18 18 18 18 17 17 17 17 16 16 16 15 16 16 17 16 16 16 17 19 20 18 16 16 16 17 19 20 19 17 15 12 10 10 12 13 15 14 13 13 13 13 12 12 12 12 13 13 13 13 13 13 12 10 10 13 14 13 11 10 11
22 21 19 18 17 18 18 19 19 19 19 19 19 19 19 19 19 19 20 20 20 19 19 19 19 19 19 19 18 18 18 18 17 17 17 17 17 18 18 18 19 19 19 20 22 21 19 17 16 17 18 20 21 20 19 15 12 12 14 15 15 14 13 13 12 12 11 11 10 9 10 11 12 12 13 12 11 10 10 11 13 12 10 9 10
Wind_Direction
115 112 108 108 107 104 105 106 106 108 114 120 120 118 117 115 111 108 105 98 93 92 88 82 75 69 65 61 59 57 55 54 53 50 49 47 43 41 40 38 33 27 23 17 10 10 11 8 3 360 358 356 353 350 348 344 341 341 339 332 327 324 321 316 311 307 307 311 310 310 315 316 313 313 315 311 303 300 297 291 285 285 286 283 275
119 117 112 111 110 109 113 119 120 120 120 120 119 118 118 114 109 107 104 102 97 90 84 81 74 67 63 61 59 56 53 52 50 48 47 43 37 33 32 32 28 23 20 15 10 9 8 7 4 0 358 355 352 350 346 345 345 346 345 339 330 326 323 318 313 309 308 312 314 314 316 316 311 311 314 314 310 305 299 294 287 284 285 286 276
125 124 118 118 119 120 121 123 126 125 124 123 122 121 119 113 110 106 101 98 95 89 84 80 76 68 61 58 56 54 51 49 47 45 44 40 33 27 26 25 20 18 17 12 10 11 8 7 5 0 358 354 349 348 348 349 349 347 344 340 333 327 325 320 314 310 307 309 312 313 313 312 310 311 313 313 312 307 300 294 288 286 287 287 278
133 131 128 129 130 128 127 127 128 128 126 126 124 122 119 114 111 107 100 94 89 88 84 77 72 67 60 57 54 51 48 46 44 42 41 40 35 26 22 21 16 14 14 10 10 11 7 6 4 358 356 354 350 349 350 349 348 344 339 336 331 326 324 321 315 310 308 307 308 308 309 309 309 310 310 311 312 311 305 295 286 286 289 287 282
138 136 135 135 134 133 132 131 130 129 129 128 125 123 120 115 110 103 99 95 88 85 83 77 69 62 58 55 51 48 46 43 40 38 37 38 38 31 22 22 18 12 14 12 9 9 7 6 3 357 356 356 353 351 349 348 346 343 339 335 330 325 322 318 315 311 308 306 306 307 308 308 308 309 310 310 311 311 308 300 287 283 287 286 282
139 136 135 135 135 134 133 132 130 129 128 126 124 123 119 115 111 105 99 95 89 82 79 78 71 60 54 50 47 44 42 40 36 35 32 32 38 35 24 22 18 11 16 14 8 8 7 5 1 357 356 356 353 350 348 346 345 343 340 336 330 325 321 318 316 312 308 306 307 308 309 310 309 309 309 310 310 308 309 307 295 284 288 289 285
138 135 134 135 135 136 135 134 132 129 128 126 124 123 119 115 111 108 103 96 88 79 74 71 65 58 52 47 43 38 37 37 33 32 29 26 34 34 19 16 16 11 14 13 7 8 6 4 1 357 357 356 351 348 347 344 344 343 341 336 331 326 322 320 318 314 311 309 309 309 309 310 309 308 308 309 309 307 308 309 301 288 283 286 288
139 137 138 138 138 138 136 133 131 129 128 127 125 123 119 115 109 106 101 94 87 79 73 67 59 54 49 44 41 35 33 32 29 30 28 23 32 35 16 12 17 11 10 11 8 6 4 2 360 356 355 352 348 346 343 341 341 341 340 337 332 328 324 321 319 316 313 310 309 309 309 309 308 308 309 310 310 307 306 307 304 298 292 287 286
139 138 140 140 140 138 135 132 130 128 127 126 125 123 118 114 109 104 97 91 85 81 78 73 63 55 47 42 39 34 32 31 26 25 24 21 29 35 17 10 16 10 6 10 6 2 2 360 356 354 353 349 346 343 339 340 342 341 340 337 334 330 325 321 319 317 314 311 309 308 307 307 307 308 308 308 307 305 305 305 304 302 301 294 284
138 138 139 138 136 134 131 130 128 127 126 125 123 121 117 112 107 101 96 91 86 83 83 80 71 59 49 42 39 35 32 31 27 24 24 23 29 38 22 9 13 10 6 9 5 359 359 357 354 354 351 348 344 338 337 343 346 344 342 341 338 334 328 322 319 317 314 311 309 308 307 305 304 305 303 302 302 302 303 303 301 300 302 300 288
137 137 135 132 130 128 126 125 125 125 124 123 121 119 116 111 105 101 97 91 87 84 82 79 73 62 50 43 40 37 33 32 30 28 31 32 38 46 32 10 11 11 7 8 3 358 356 355 357 355 351 350 345 337 340 345 346 346 347 347 343 337 330 323 318 316 314 311 308 308 306 303 302 301 299 299 300 299 298 298 298 299 300 300 293
137 136 133 130 129 128 125 124 124 122 121 121 120 117 113 109 106 102 95 89 85 83 81 79 75 65 49 42 41 38 34 34 32 31 36 38 45 53 37 10 12 10 6 7 3 357 356 357 358 355 352 351 344 339 342 345 346 348 349 347 342 338 333 326 321 318 315 311 308 306 304 302 300 298 297 297 296 295 295 293 293 295 294 292 291
138 136 133 131 130 128 127 126 124 123 122 121 119 116 113 110 105 99 93 88 83 79 79 78 77 74 55 41 40 39 36 36 35 33 37 40 47 54 36 12 14 11 5 6 3 359 358 359 358 355 354 351 346 344 346 347 349 351 349 345 341 340 337 331 326 322 314 309 306 304 306 304 300 297 296 296 295 293 293 292 291 291 289 285 285
139 137 134 133 131 129 129 128 126 124 123 121 119 117 113 107 101 95 90 86 81 76 75 74 74 77 68 41 37 38 37 36 35 35 38 42 46 46 29 12 13 11 6 6 5 1 359 359 357 354 353 353 352 352 352 352 354 353 347 344 343 344 342 336 330 326 320 317 311 307 309 307 300 299 297 294 293 290 289 291 290 288 287 285 283
141 139 136 134 132 131 131 130 128 126 124 122 121 117 112 106 102 98 92 87 82 77 72 69 69 72 75 51 34 35 36 35 35 36 37 42 47 39 22 13 12 8 6 7 5 1 356 356 355 352 352 354 356 359 0 359 358 353 346 345 346 348 349 344 339 338 336 334 327 318 317 314 307 303 299 293 289 286 286 290 290 289 288 285 283
142 140 138 136 135 135 134 132 129 126 124 122 121 117 111 106 102 99 94 88 83 79 73 69 65 64 68 63 36 31 34 34 33 35 34 38 45 38 17 12 14 7 5 6 5 358 349 351 352 348 347 348 351 1 6 3 359 351 346 347 348 349 350 348 345 345 344 343 339 335 332 327 318 310 301 293 286 284 289 291 289 289 287 283 282
143 142 140 138 138 137 136 135 131 128 125 124 122 118 112 109 104 99 96 91 84 78 72 68 63 58 58 60 48 30 31 32 30 32 32 31 39 38 19 10 13 8 4 4 4 357 346 346 347 342 340 342 347 358 5 3 359 353 347 350 353 352 351 348 346 347 347 346 346 346 345 340 331 320 309 297 286 285 292 292 288 287 284 279 280
145 144 142 141 141 139 138 137 132 130 129 126 122 118 114 111 107 102 97 93 88 81 75 66 60 54 49 51 51 36 29 29 26 27 28 26 31 35 22 10 11 9 4 1 1 357 347 345 343 335 335 342 351 359 2 359 358 355 349 352 356 355 352 350 348 349 350 350 350 348 348 349 345 335 325 312 295 286 290 291 288 286 281 276 277
147 146 144 143 141 139 139 137 135 134 133 128 123 119 116 113 107 102 96 92 90 87 84 74 61 55 45 42 45 40 31 27 24 23 23 22 26 30 23 14 10 5 1 357 356 354 349 346 339 330 333 345 355 1 0 356 357 355 348 348 351 352 352 352 352 351 351 351 351 350 349 352 353 348 341 331 314 298 294 293 291 287 280 275 272
148 146 145 144 142 142 142 139 138 138 134 128 123 119 118 114 109 108 104 100 101 95 86 77 62 55 45 33 35 36 30 25 21 21 20 18 20 25 22 15 12 8 2 355 352 350 348 346 338 330 337 349 355 357 357 354 355 354 348 347 348 348 350 351 349 348 349 350 352 352 352 354 355 354 351 344 333 320 307 301 299 292 281 273 269
148 147 146 146 145 144 144 142 140 139 135 129 126 123 119 114 109 108 106 101 101 94 82 73 55 45 41 27 22 24 24 20 17 18 18 18 19 21 19 14 11 11 3 352 348 344 342 344 338 334 342 350 352 353 354 352 351 350 347 347 347 348 349 349 344 341 347 351 353 354 355 355 356 357 355 351 345 338 326 317 312 301 281 270 268
149 148 147 147 146 147 148 147 142 139 135 130 127 126 122 119 116 113 108 97 91 88 80 74 60 42 38 29 15 13 13 13 15 17 16 17 20 21 20 14 8 5 358 349 345 340 339 340 337 338 344 350 352 353 353 350 348 347 345 346 348 349 349 348 344 342 347 352 354 355 356 356 357 358 357 354 352 349 342 334 328 315 287 271 266
149 148 148 148 151 154 154 149 143 139 136 132 128 126 121 120 120 117 112 99 86 83 75 67 60 46 40 34 23 17 7 3 9 15 15 16 19 20 20 14 5 3 4 352 340 335 335 337 339 342 348 352 353 352 350 348 347 345 345 347 349 349 347 346 345 345 348 352 355 357 358 357 356 357 357 356 355 355 352 346 348 348 325 289 265
150 149 150 151 154 157 154 149 144 141 138 135 133 133 129 124 120 114 113 110 97 89 74 60 54 42 36 30 21 24 16 0 2 9 13 16 18 19 18 10 0 2 8 353 338 337 340 342 345 347 350 352 353 349 346 347 347 345 346 348 349 348 346 346 345 345 349 354 356 357 358 358 357 356 357 358 360 1 0 359 5 8 358 324 268
152 151 153 154 155 155 152 149 147 145 143 140 139 139 137 134 130 118 111 105 95 90 74 57 50 37 31 26 14 14 14 4 0 5 12 16 17 18 17 8 1 5 7 354 347 353 356 354 351 348 347 350 350 347 346 348 348 347 347 349 350 349 347 347 346 345 349 354 356 356 358 359 359 358 359 3 6 7 8 11 17 22 21 13 316
153 153 155 155 155 155 154 154 156 154 150 148 150 149 145 142 140 132 124 116 101 90 75 54 45 34 24 21 15 8 5 359 358 4 12 15 15 18 16 9 7 10 6 358 1 7 6 1 354 347 347 349 349 347 349 350 349 349 350 350 351 350 349 348 347 346 350 354 355 356 358 0 1 1 3 8 10 11 13 15 18 25 33 34 35
154 155 158 158 157 160 162 163 164 161 156 157 159 157 152 149 143 133 126 122 108 88 73 52 40 34 21 12 11 12 3 354 354 2 11 13 14 16 14 10 12 15 10 5 9 13 10 1 351 348 350 350 349 350 351 351 351 352 352 351 351 350 349 349 348 349 351 354 355 356 359 2 3 3 4 9 13 14 16 17 18 24 33 37 41
156 158 160 160 161 166 171 170 168 164 163 163 161 156 157 156 152 158 163 154 149 137 94 61 36 29 24 10 8 14 2 348 352 1 9 12 12 13 12 12 16 23 22 13 10 12 8 356 348 351 353 351 351 353 353 353 353 353 352 352 352 350 348 348 349 350 352 354 356 357 0 3 4 3 5 9 12 15 18 19 20 24 32 40 45
159 161 163 164 167 172 176 176 172 170 170 166 163 171 174 162 152 181 206 190 171 168 158 143 124 65 42 4 360 16 0 345 353 5 10 11 11 10 12 15 19 25 25 17 10 8 3 353 349 353 354 352 353 354 354 354 354 353 353 353 352 352 350 349 350 351 353 356 357 358 1 3 4 5 7 9 12 16 19 21 22 25 32 40 45
161 165 167 169 174 175 177 180 177 175 176 170 171 188 191 181 175 190 218 207 180 176 175 177 171 98 95 2 343 11 5 353 0 8 10 12 11 9 12 19 24 24 20 14 10 6 356 349 350 353 353 352 353 353 353 354 354 354 354 354 353 352 352 351 351 352 355 357 358 359 2 4 5 7 8 10 12 16 20 24 25 26 32 38 42
164 171 173 176 181 178 177 181 179 177 179 176 175 185 189 186 190 202 216 199 192 189 158 127 25 46 73 2 348 8 11 5 6 8 8 11 11 10 14 21 25 24 16 10 9 4 353 348 350 351 352 352 352 352 352 353 354 355 354 354 354 353 352 352 353 354 357 358 358 360 3 5 6 8 10 11 13 17 22 27 28 28 32 37 40
168 176 178 181 184 181 178 182 181 179 181 182 182 185 184 190 214 250 293 336 347 351 360 11 14 15 14 4 359 4 5 2 2 6 8 8 7 11 18 20 19 17 13 9 5 357 349 348 350 349 351 352 352 352 351 351 353 353 353 354 355 354 353 353 353 357 0 359 359 2 4 4 7 10 12 13 16 18 23 28 31 31 33 37 40
175 180 181 183 186 183 180 183 183 181 184 186 188 193 195 201 219 244 272 302 324 335 340 349 356 359 2 3 1 359 357 356 359 3 5 4 5 13 21 21 15 10 8 8 2 350 346 350 350 349 351 352 350 351 351 350 351 351 351 354 354 353 354 354 354 359 4 2 1 5 7 5 6 10 14 16 17 20 23 28 33 34 35 38 41
180 182 183 185 185 183 182 184 183 184 187 188 190 195 199 201 208 226 252 278 298 309 316 325 331 340 349 353 355 357 353 350 352 357 360 2 6 14 21 20 12 5 2 2 357 347 346 350 350 349 351 351 349 350 351 350 351 351 351 353 353 353 355 355 357 4 6 2 1 7 9 8 8 11 15 17 19 21 24 28 33 36 38 39 42
182 186 188 187 184 183 184 184 185 186 188 190 192 196 201 203 203 210 226 247 272 286 291 298 306 319 333 338 341 346 346 343 345 351 357 3 9 15 21 16 5 358 356 356 351 346 347 349 349 349 350 350 350 351 351 351 352 352 352 353 353 354 356 356 359 7 9 1 1 7 10 11 11 13 15 19 20 23 26 30 34 38 41 43 45
184 187 189 186 183 184 185 185 187 188 189 192 195 195 197 202 205 211 220 228 240 253 265 282 295 307 318 323 325 332 336 338 344 350 354 0 5 10 15 9 352 346 350 350 347 348 349 348 348 349 350 349 350 351 351 352 353 352 352 354 353 354 357 357 359 7 9 3 1 7 11 12 14 15 17 21 23 24 28 34 40 43 45 48 49
186 187 187 186 184 185 186 187 189 192 191 191 195 198 200 204 209 216 223 228 235 247 257 266 275 289 302 308 311 319 327 334 343 347 348 352 356 359 4 356 338 337 344 345 344 346 349 348 349 350 349 349 350 351 350 352 353 351 352 354 354 355 359 359 0 8 11 5 3 8 11 13 16 17 19 22 25 25 27 34 42 47 49 50 50
187 189 189 187 185 185 188 191 193 195 194 193 197 203 206 210 214 220 226 231 238 247 256 258 257 270 287 295 301 314 325 332 338 340 340 342 345 346 345 335 324 328 336 338 339 343 346 346 347 349 349 349 350 351 351 351 352 352 353 354 355 358 2 2 3 11 14 8 4 7 10 12 16 19 20 22 26 28 28 30 38 46 50 50 50
189 193 195 193 189 187 192 194 195 197 199 201 206 210 212 214 220 224 230 237 242 245 251 257 258 263 272 279 291 310 322 323 321 320 321 321 321 321 318 315 316 323 329 331 335 339 342 344 346 347 348 349 349 350 351 351 350 352 355 355 356 1 4 3 4 12 15 10 5 7 10 11 15 19 21 22 25 29 31 30 32 39 46 50 53
189 193 199 198 193 191 196 199 198 201 204 205 210 216 218 221 226 229 232 238 242 244 247 253 260 265 259 245 249 272 292 294 291 292 292 292 296 300 304 308 311 315 319 325 330 332 335 340 343 343 345 348 348 348 350 351 351 352 354 355 358 3 5 4 7 13 15 10 7 8 10 11 14 17 20 23 25 29 33 33 31 33 38 44 52
190 195 203 205 199 195 200 204 204 206 209 210 214 220 223 225 228 231 235 240 242 244 248 252 256 259 254 247 254 272 285 285 280 281 283 283 288 292 295 301 305 309 313 319 323 325 328 332 337 339 342 345 346 346 347 350 352 354 354 353 356 2 6 7 11 16 16 12 9 9 11 13 15 16 18 22 26 28 31 34 36 36 37 39 45
192 194 201 206 202 199 203 207 208 210 212 214 218 222 225 228 231 233 236 240 242 244 250 253 254 259 263 263 267 279 288 285 274 271 274 276 280 284 288 293 298 301 306 312 315 318 321 325 329 333 337 341 343 344 345 347 349 353 354 352 354 0 4 7 12 17 19 16 12 10 11 15 17 18 18 21 25 29 31 33 36 40 42 42 42
194 193 195 200 201 202 205 209 211 214 217 219 222 225 227 231 234 236 236 239 241 243 248 252 251 256 265 269 271 278 286 283 271 263 265 270 273 278 283 287 288 291 300 307 308 308 311 316 321 326 332 338 341 342 344 345 346 350 353 353 355 0 3 5 10 16 20 21 17 11 10 13 16 20 22 22 22 26 31 33 36 39 42 45 47
196 198 198 198 201 204 206 209 213 217 220 221 225 228 230 231 235 238 239 240 241 242 245 249 250 250 258 266 271 276 278 270 258 256 262 266 270 274 277 278 278 282 291 298 299 298 302 308 314 319 326 333 338 341 343 342 342 347 350 352 357 3 4 4 7 13 17 21 20 12 7 9 13 20 27 27 23 24 30 33 36 39 40 43 49
198 202 203 201 203 205 207 211 215 218 221 224 227 229 231 232 234 237 239 241 243 243 243 246 248 247 247 253 261 266 264 256 253 258 263 264 268 271 271 271 274 278 283 291 293 290 294 302 311 317 320 326 334 342 345 338 336 344 348 347 354 4 6 4 7 10 12 17 22 18 11 9 10 15 27 30 25 24 28 31 33 37 39 39 45
202 204 206 206 208 209 210 213 216 218 221 225 227 229 233 234 235 237 239 240 241 244 244 246 247 246 244 245 248 251 254 254 256 260 261 262 264 266 266 268 271 272 276 286 287 283 289 301 311 315 317 321 327 336 343 334 328 337 342 337 344 358 4 3 7 12 9 11 19 21 18 15 13 15 25 32 30 27 30 30 30 35 38 38 40
205 207 209 210 212 215 215 217 219 221 223 226 228 231 235 236 236 238 240 240 240 242 243 245 248 247 246 246 246 248 251 253 253 256 259 261 262 263 265 267 268 267 272 281 284 282 287 296 299 302 307 313 319 329 337 327 317 324 326 323 332 348 356 358 5 13 10 8 15 20 17 17 21 24 27 32 34 34 34 31 27 30 36 37 38
208 210 213 214 216 219 220 220 222 224 225 228 231 233 235 237 238 239 240 241 241 241 242 243 246 247 248 248 248 247 249 251 252 254 257 259 261 264 267 269 271 273 276 279 280 281 285 289 292 297 304 309 315 321 322 310 304 307 303 307 323 340 348 348 356 8 9 8 15 20 15 14 21 29 31 33 34 36 40 39 32 25 28 33 36
212 213 215 218 220 223 224 225 226 227 228 231 233 234 236 237 238 239 241 242 243 243 243 244 245 246 247 248 249 248 250 251 252 253 255 258 263 267 269 271 275 277 278 278 278 279 284 290 295 300 303 305 309 311 305 295 291 288 284 298 319 335 340 339 346 357 2 5 14 20 16 13 18 25 31 33 31 31 42 49 41 28 23 26 30
217 218 221 223 224 226 227 228 229 231 231 232 234 236 238 239 239 239 241 243 244 245 246 245 245 246 246 247 248 249 249 250 251 252 254 259 264 268 270 271 273 274 277 279 278 276 277 280 283 286 291 297 303 306 303 297 285 271 276 297 319 329 331 333 339 345 350 357 8 17 18 17 19 22 27 30 28 30 43 49 39 26 21 23 23
218 221 224 226 227 229 229 230 232 233 233 234 235 236 238 239 241 241 241 242 243 245 246 246 247 247 247 248 249 250 250 251 252 254 256 261 265 267 270 272 272 272 274 277 276 273 271 272 272 273 279 287 294 298 301 299 284 270 279 299 314 319 321 327 332 337 342 346 354 7 17 19 20 24 28 28 24 27 37 38 27 18 16 19 18